Baudette, MN

6:32 PM CDT on May 22, 2017 (GMT -0500)
Baudette International

Weather History for KBDE - January, 2013

Change the Weather History Date:

Thursday, January 24, 2013

  Actual Average Record
Temperature  
Mean Temperature -14 °F -  
Max Temperature 1 °F 15 °F 44 °F (1942)
Min Temperature -29 °F -5 °F -43 °F (1987)
Degree Days  
Heating Degree Days 79    
Moisture  
Dew Point -13 °F    
Average Humidity 76    
Maximum Humidity 85    
Minimum Humidity 59    
Precipitation  
Precipitation 0.03 in - - ()
Sea Level Pressure  
Sea Level Pressure 30.32 in    
Wind  
Wind Speed 5 mph (SE)    
Max Wind Speed 12 mph    
Max Gust Speed 17 mph    
Visibility 4 miles    
Events Snow    
Averages and records for this station are not official NWS values.
T = Trace of Precipitation, MM = Missing Value Source: NWS Daily Summary

Daily Weather History Graph

Daily Weather History Graph

Search for Another Location

Airport or City:

Trip Planner

Search our weather history database for the weather conditions in past years. The results will help you decide how hot, cold, wet, or windy it might be!

Date:

Astronomy

Jan. 24, 2013 Rise Set
Actual Time 7:57 AM CST 5:04 PM CST
Civil Twilight 7:22 AM CST 5:38 PM CST
Nautical Twilight 6:44 AM CST 6:17 PM CST
Astronomical Twilight 6:07 AM CST 6:54 PM CST
Moon 3:04 PM CST (1/24) 5:59 AM CST (1/24)
Length of Visible Light 10h 15m
Length of Day
9h 06m
Waxing Gibbous, 94% of the Moon is Illuminated
Jan 24
Waxing Gibbous
Jan 26
Full
Feb 3
Last Quarter
Feb 10
New
Feb 17
First Quarter

Hourly Weather History & Observations

Time (CST) Temp. Windchill Dew Point Humidity Pressure Visibility Wind Dir Wind Speed Gust Speed Precip Events Conditions
12:53 AM -25.1 °F - -29.9 °F 78% 30.75 in 10.0 mi Calm Calm - N/A   Clear
1:53 AM -27.0 °F - -33.0 °F 73% 30.74 in 10.0 mi Calm Calm - N/A   Clear
2:53 AM -27.9 °F - -35.0 °F 69% 30.74 in 10.0 mi Calm Calm - N/A   Clear
3:53 AM -29.0 °F - -34.1 °F 77% 30.73 in 10.0 mi Calm Calm - N/A   Clear
4:53 AM -29.0 °F - -35.0 °F 73% 30.73 in 10.0 mi Calm Calm - N/A   Clear
5:53 AM -29.9 °F - - N/A% 30.73 in 10.0 mi Calm Calm - N/A   Clear
6:53 AM -27.9 °F - -34.1 °F 73% 30.73 in 10.0 mi Calm Calm - N/A   Clear
7:53 AM -26.0 °F - -29.9 °F 81% 30.71 in 10.0 mi Calm Calm - N/A   Clear
8:53 AM -23.1 °F -34.2 °F -27.9 °F 78% 30.69 in 10.0 mi SE 3.5 mph - N/A   Clear
9:53 AM -18.9 °F -32.0 °F -24.0 °F 78% 30.66 in 10.0 mi SE 4.6 mph - N/A   Clear
10:53 AM -14.1 °F -28.3 °F -20.9 °F 71% 30.63 in 10.0 mi SE 5.8 mph - N/A   Scattered Clouds
11:53 AM -11.0 °F -27.6 °F -18.0 °F 71% 30.58 in 10.0 mi ESE 8.1 mph - N/A   Overcast
12:53 PM -8.0 °F -21.0 °F -18.0 °F 61% 30.55 in 10.0 mi SE 5.8 mph - N/A   Overcast
1:53 PM -7.1 °F -22.8 °F -18.0 °F 59% 30.50 in 10.0 mi SE 8.1 mph - N/A   Overcast
2:44 PM -5.8 °F -22.4 °F -16.6 °F 60% 30.32 in 1.8 mi SSE 9.2 mph - 0.00 in Snow Light Snow
2:53 PM -6.0 °F -22.6 °F -15.0 °F 65% 30.44 in 1.0 mi SSE 9.2 mph - 0.00 in Snow Light Snow
2:56 PM -5.8 °F -23.4 °F -14.8 °F 65% 30.31 in 1.2 mi SE 10.4 mph 17.3 mph 0.00 in Snow Light Snow
3:03 PM -5.8 °F -22.4 °F -14.8 °F 65% 30.30 in 1.0 mi SE 9.2 mph - 0.00 in Snow Light Snow
3:11 PM -5.8 °F -24.4 °F -13.0 °F 71% 30.29 in 0.8 mi SE 11.5 mph 17.3 mph 0.00 in Snow Light Snow
3:28 PM -5.8 °F -22.4 °F -11.2 °F 77% 30.29 in 1.0 mi SE 9.2 mph - 0.00 in Snow Light Snow
3:37 PM -5.8 °F -24.4 °F -11.2 °F 77% 30.28 in 1.2 mi SE 11.5 mph - 0.00 in Snow Light Snow
3:43 PM -5.8 °F -23.4 °F -11.2 °F 77% 30.27 in 2.0 mi SE 10.4 mph 17.3 mph 0.00 in Snow Light Snow
3:53 PM -6.0 °F -20.1 °F -11.9 °F 75% 30.40 in 6.0 mi SE 6.9 mph - 0.00 in Snow Light Snow
4:53 PM -5.1 °F -20.4 °F -11.9 °F 72% 30.38 in 10.0 mi SE 8.1 mph - 0.00 in   Overcast
5:53 PM -5.1 °F -22.5 °F -11.9 °F 72% 30.32 in 10.0 mi SE 10.4 mph - N/A   Overcast
6:44 PM -4.0 °F -20.2 °F -9.4 °F 78% 30.16 in 1.8 mi SE 9.2 mph 16.1 mph 0.00 in Snow Light Snow
6:53 PM -4.0 °F -21.2 °F -9.9 °F 76% 30.30 in 1.2 mi SE 10.4 mph 17.3 mph 0.00 in Snow Light Snow
7:05 PM -4.0 °F -21.2 °F -9.4 °F 78% 30.16 in 1.0 mi SE 10.4 mph - 0.00 in Snow Light Snow
7:16 PM -4.0 °F -19.0 °F -9.4 °F 78% 30.15 in 0.8 mi SE 8.1 mph - 0.01 in Snow Light Snow
7:35 PM -4.0 °F -17.8 °F -7.6 °F 85% 30.13 in 1.0 mi SE 6.9 mph - 0.01 in Snow Light Snow
7:53 PM -2.9 °F -18.8 °F -8.0 °F 79% 30.24 in 1.0 mi SE 9.2 mph - 0.01 in Snow Light Snow
7:59 PM -2.2 °F -18.9 °F -7.6 °F 78% 30.11 in 1.2 mi SE 10.4 mph 17.3 mph 0.00 in Snow Light Snow
8:10 PM -2.2 °F -15.6 °F -7.6 °F 78% 30.09 in 1.5 mi SE 6.9 mph - 0.00 in Snow Light Snow
8:18 PM -2.2 °F -18.9 °F -7.6 °F 78% 30.09 in 1.2 mi SE 10.4 mph - 0.00 in Snow Light Snow
8:28 PM -2.2 °F -18.0 °F -7.6 °F 78% 30.08 in 0.8 mi SE 9.2 mph - 0.00 in Snow Light Snow
8:36 PM -2.2 °F -16.8 °F -7.6 °F 78% 30.08 in 1.2 mi SE 8.1 mph - 0.00 in Snow Light Snow
8:40 PM -2.2 °F -15.6 °F -7.6 °F 78% 30.09 in 2.0 mi SSE 6.9 mph - 0.00 in Snow Light Snow
8:43 PM -2.2 °F -14.2 °F -7.6 °F 78% 30.09 in 3.0 mi SSE 5.8 mph - 0.00 in Snow Light Snow
8:53 PM -2.0 °F -16.6 °F -7.1 °F 79% 30.22 in 9.0 mi SSE 8.1 mph - 0.00 in   Overcast
9:53 PM -0.0 °F -14.2 °F -6.0 °F 76% 30.17 in 7.0 mi SSE 8.1 mph - 0.00 in Snow Light Snow
10:53 PM 1.0 °F -11.7 °F -4.0 °F 79% 30.13 in 2.5 mi Variable 6.9 mph - 0.01 in Snow Light Snow
11:05 PM 1.4 °F -11.3 °F -4.0 °F 78% 30.01 in 1.2 mi SSE 6.9 mph - 0.00 in Snow Light Snow
11:07 PM 1.4 °F -11.3 °F -4.0 °F 78% 30.01 in 0.8 mi SSE 6.9 mph - 0.00 in Snow Light Snow
11:17 PM 1.4 °F -11.3 °F -2.2 °F 85% 30.00 in 1.2 mi SSE 6.9 mph - 0.00 in Snow Light Snow
11:22 PM 1.4 °F -11.3 °F -2.2 °F 85% 30.00 in 2.0 mi Variable 6.9 mph - 0.00 in Snow Light Snow
11:30 PM 1.4 °F -9.9 °F -2.2 °F 85% 30.00 in 1.2 mi SSE 5.8 mph - 0.00 in Snow Light Snow
11:38 PM 1.4 °F -11.3 °F -2.2 °F 85% 29.99 in 0.8 mi SE 6.9 mph - 0.01 in Snow Light Snow
11:46 PM 1.4 °F -11.3 °F -2.2 °F 85% 29.99 in 1.0 mi SSE 6.9 mph - 0.01 in Snow Light Snow
11:53 PM 1.9 °F -11.8 °F -2.9 °F 80% 30.10 in 1.5 mi SSE 8.1 mph - 0.01 in Snow Light Snow